Location: Melita
(38.4566°N, 122.6369°W)
Time: 14:02:24
(UTC+00:00)

Daily predictions for brighter satellites

Satellite Brightness Start Highest point End
(mag) Time Altitude Azimuth Time Altitude Azimuth Time Altitude Azimuth
Cosmos 1980 Rocket 3.8 12:20:28 29° NE 12:20:28 29° NE 12:23:12 10° NNE
ATLAS 2AS CENTAUR R/B 3.4 12:29:51 36° S 12:33:16 62° ESE 12:41:10 10° NE
Cosmos 2327 Rocket 4.4 12:46:13 76° SSE 12:46:13 76° SSE 12:51:50 10° S
USA 238 DEB 4.0 12:44:37 50° NNW 12:46:41 72° NE 12:54:06 10° SE
USA 238 4.0 12:44:41 49° NNW 12:46:46 71° NE 12:54:13 10° SE
COSMO-SKYMED 1 3.9 12:54:05 10° SE 12:58:04 37° ENE 13:00:08 23° NNE
Cosmos 2322 Rocket 3.6 13:03:34 10° S 13:08:44 38° ESE 13:13:57 10° NE
Cosmos 2228 3.7 13:04:42 10° S 13:08:59 54° E 13:13:17 10° NNE
Meteor 1-21 Rocket 4.3 13:04:51 12° N 13:10:29 81° E 13:16:25 10° SSE
CZ-3 Stage 3 4.0 13:11:01 32° SW 13:11:08 32° SSW 13:14:40 10° SE
Meteor 2-10 4.4 13:09:57 10° S 13:15:26 68° E 13:20:46 10° NNE
Cosmos 2263 Rocket 3.1 13:13:22 14° N 13:18:00 47° ENE 13:23:27 10° SE
ALOS 2.6 13:13:52 10° NNE 13:18:31 65° ESE 13:23:08 10° S
Gbstr 26 Del rocket 4.2 13:20:13 35° SW 13:23:27 88° NW 13:31:23 10° NE
USA 32 4.4 13:18:25 10° N 13:23:38 63° E 13:28:48 10° SSE
STARLINK 1031 3.6 13:25:24 63° ENE 13:25:24 63° ENE 13:28:32 10° NE
Cosmos 2154 Rocket 4.0 13:23:26 34° NW 13:25:51 53° W 13:31:50 10° SSW
STARLINK 1035 3.8 13:27:17 49° NE 13:27:17 49° NE 13:29:55 10° NE
STARLINK 1024 3.4 13:28:20 69° NE 13:28:20 69° NE 13:31:36 10° NE
STARLINK 1027 3.8 13:30:41 49° NNE 13:30:41 49° NNE 13:33:21 10° NE
Cosmos 158 Rocket 4.4 13:27:20 10° S 13:32:05 57° ESE 13:36:55 10° NNE
Lacrosse 5 2.1 13:28:54 21° SSW 13:32:17 70° SE 13:37:21 10° NE
COSMOS 2455 3.3 13:32:36 38° NW 13:32:36 38° NW 13:38:09 10° NNE
STARLINK 1032 3.2 13:34:18 75° N 13:34:18 75° N 13:37:47 10° NE
Cosmos 1295 Rocket 4.4 13:29:46 10° NNW 13:35:48 58° W 13:41:46 10° S
STARLINK 1011 3.1 13:37:16 73° NNW 13:37:16 73° NNW 13:40:54 10° NE
OE (NEXTSAT) 4.2 13:37:19 82° N 13:37:19 82° N 13:40:48 10° ENE
Cosmos 1908 3.4 13:35:09 10° S 13:39:02 71° E 13:42:56 10° NNE
NOSS 3-2 (C) 4.1 13:33:13 18° NNW 13:39:21 89° WSW 13:47:55 10° SSE
STARLINK 1036 3.1 13:40:16 68° NW 13:40:20 68° NW 13:44:00 10° NE
ATLAS 3B R/B 3.4 13:35:02 12° NNW 13:41:17 53° NE 13:48:02 10° SE
Cosmos 2344 4.3 13:40:30 28° WNW 13:42:04 30° NW 13:49:05 10° NNE
Cosmos 1680 Rocket 3.4 13:37:40 10° SSW 13:42:57 69° WNW 13:48:16 10° NNE
Genesis I 4.1 13:41:44 22° N 13:43:53 44° NE 13:47:32 10° SE
SKYMED 2 3.5 13:41:44 10° S 13:46:01 61° W 13:48:43 22° NNW
STARLINK 1047 3.3 13:46:18 56° WNW 13:46:37 59° NW 13:50:16 10° NE
STARLINK 1037 3.3 13:47:40 54° WNW 13:48:04 57° NW 13:51:43 10° NE
Cosmos 1953 Rocket 3.4 13:43:46 10° N 13:48:12 80° W 13:52:33 10° S
Cosmos 2366 rocket 4.2 13:42:27 10° N 13:48:50 75° E 13:55:09 10° SSE
NOSS 3-4 (A) 3.5 13:45:33 21° WSW 13:49:29 55° NW 13:55:39 10° NNE
NOSS 3-4 (C) 3.4 13:45:33 20° SW 13:49:35 56° NW 13:55:45 10° NNE
SL-16 R/B 2.1 13:44:01 10° SSW 13:49:40 80° WNW 13:55:23 10° NNE
SL-4 R/B 1.9 13:50:13 44° WSW 13:50:27 44° SW 13:53:44 10° SSE
STARLINK 1059 3.4 13:50:43 48° WNW 13:51:15 54° NW 13:54:53 10° NE
ADEOS Rocket 4.0 13:46:09 10° SE 13:51:15 42° ENE 13:56:32 10° N
USA 215 3.6 13:44:56 10° ESE 13:51:21 61° NE 13:56:57 14° NW
Cosmos 1758 Rocket 4.0 13:51:43 35° WNW 13:52:36 39° W 13:56:43 10° SSW
NOAA 6 4.1 13:48:06 10° NNE 13:53:19 81° ESE 13:58:30 10° S
STARLINK 1057 3.5 13:53:47 44° WNW 13:54:26 50° NW 13:58:02 10° NE
FENGYUN 3A 3.6 13:49:35 10° N 13:54:55 60° WNW 14:00:13 10° SSW
Cosmos 2360 Rocket 3.3 13:49:54 10° S 13:55:16 47° ESE 14:00:41 10° NE
STARLINK 1052 3.6 13:56:52 39° WNW 13:57:38 47° NW 14:01:14 10° NE
Abrixas rocket 2.1 13:57:14 45° NNW 13:57:58 68° NNE 14:00:58 10° ESE
NOSS 3-2 (A) 4.4 13:53:36 20° NW 13:58:59 48° WSW 14:07:04 10° S
SJ-12 4.4 13:56:25 10° N 14:00:10 36° WNW 14:03:54 10° SW
Cosmos 2112 Rocket 4.1 13:55:34 10° SSW 14:00:47 55° WNW 14:06:04 10° N
STARLINK 1068 3.7 13:59:56 36° WNW 14:00:51 44° NW 14:04:25 10° NE
Cosmos 1980 Rocket 3.5 14:02:18 20° NW 14:02:18 20° NW 14:06:09 10° N
CENTAUR R/B 3.2 13:54:24 11° NW 14:02:31 83° WSW 14:11:18 10° SSE
Cosmos 1703 3.2 13:59:38 10° NNW 14:03:33 64° W 14:07:25 10° S
CZ-4B R/B 3.1 14:00:10 10° NNE 14:05:43 86° WNW 14:11:07 10° SSW
STARLINK 1060 3.9 14:06:07 30° WNW 14:07:17 39° NW 14:10:48 10° NE
STARLINK 1030 3.9 14:09:11 27° W 14:10:32 37° NW 14:14:00 10° NE
STARLINK 1020 4.0 14:12:18 25° W 14:13:47 35° NW 14:17:13 10° NE
Okean O Rocket 1.6 14:09:40 10° N 14:14:04 61° WNW 14:18:24 10° SSW
SMAP 3.9 14:11:14 10° NNE 14:15:48 54° E 14:20:21 10° S
STARLINK 1055 4.3 14:12:15 10° SSW 14:16:17 55° SE 14:20:20 10° ENE
STARLINK 1034 4.1 14:15:26 23° W 14:17:03 33° NNW 14:20:27 10° NNE
Cosmos 1624 Rocket 4.0 14:15:03 10° NNW 14:20:17 89° E 14:25:28 10° SSE
Cosmos 2058 Rocket 3.4 14:16:21 10° SSW 14:20:28 40° WNW 14:24:36 10° N
STARLINK 1022 4.1 14:17:11 10° SW 14:21:15 61° SE 14:25:21 10° NE
Cosmos 2181 Rocket 4.4 14:16:51 10° SW 14:22:32 38° WNW 14:28:21 10° N
SL-8 Rocket 4.2 14:17:38 10° NNW 14:23:28 44° W 14:29:14 10° SSW
Helios 1A Rocket 2.9 14:19:27 10° N 14:23:32 61° WNW 14:27:36 10° SSW
STARLINK 1033 4.3 14:21:43 19° W 14:23:39 30° NNW 14:26:57 10° NNE
ATLAS 2AS CENTAUR R/B 3.7 14:17:37 10° WSW 14:24:46 35° NW 14:31:55 10° NNE
STARLINK 1042 4.0 14:22:09 10° SW 14:26:15 68° SE 14:30:22 10° NE
STARLINK 1056 3.8 14:27:04 10° SW 14:31:11 75° SE 14:35:19 10° NE
COSMO-SKYMED 1 4.1 14:31:27 10° SW 14:34:21 17° W 14:37:15 10° NW
Cosmos 2056 Rocket 3.6 14:30:20 10° NNW 14:35:44 69° WSW 14:41:05 10° S
STARLINK 1054 3.7 14:32:02 10° SW 14:36:09 83° SE 14:40:18 10° NE
Milstar 3 Cent rocket 4.3 14:24:27 10° WSW 14:37:32 44° S 14:44:08 10° ESE
Meteor 1-11 4.5 14:33:27 10° NNW 14:38:47 46° W 14:44:10 10° SSW
STARLINK 1062 3.6 14:36:58 10° SW 14:41:06 90° N 14:45:15 10° NE
CZ-4 R/B 4.0 14:41:09 10° NE 14:44:43 26° E 14:48:14 10° SSE
STARLINK 1053 3.6 14:41:57 10° SW 14:46:06 82° NW 14:50:15 10° NE
Cosmos 1076 Rocket 3.9 14:43:59 10° N 14:48:21 70° E 14:52:41 10° SSE
Cosmos 1437 2.5 14:47:36 10° N 14:50:38 86° W 14:53:39 10° S
STARLINK 1061 3.6 14:46:57 10° SW 14:51:05 75° NW 14:55:14 10° NE
CZ-3 R/B 3.2 14:39:00 10° W 14:51:55 32° SSW 14:56:46 10° SSE
Cosmos 2322 Rocket 3.0 14:47:56 10° WSW 14:52:49 29° WNW 14:57:45 10° N
Nadezhda 3 Rocket 4.0 14:48:18 10° SSW 14:54:23 67° W 15:00:34 10° N
ALOS 4.0 14:53:20 10° NW 14:55:21 13° WNW 14:57:22 10° W
STARLINK 1067 3.6 14:51:57 10° WSW 14:56:04 68° NW 15:00:12 10° NE
CZ-2C R/B 4.2 14:51:45 10° SSE 14:56:18 66° ENE 15:00:48 10° N
Cosmos 1821 Rocket 4.0 14:50:40 10° N 14:56:50 81° W 15:02:54 10° S
